Location: Croagnes
(43.9363°N, 5.3265°E)
Time: 22:07:34
(UTC+00:00)

Meteor 1-16 Rocket - Pass Details

Date: 05 October 2020
Orbit: 790 x 908 km, 81.2° (Epoch: 22 October)

Event Time Altitude Azimuth Distance (km) Brightness Sun altitude
Rises 18:27:58 0° 157° (SSE) 3,520 7.1 -14.5°
Reaches altitude 10° 18:30:45 10° 146° (SE) 2,578 6.3 -15.0°
Maximum altitude 18:35:41 29° 89° (E) 1,595 5.1 -15.9°
Drops below altitude 10° 18:40:34 10° 32° (NNE) 2,550 6.5 -16.8°
Sets 18:43:17 0° 21° (NNE) 3,476 7.3 -17.3°
